QPF
0.00 0.00 0.00 0.00 0.00 0.00 0.00 0.00 0.00 0.00 0.00 0.00 0.00 0.00 0.00 0.00 0.00 0.00 0.00 0.00 0.00 0.00 0.00 0.00 0.00 0.00 0.00 0.00 0.00 0.00 0.00 0.00 0.00 0.00 0.00 0.00 0.00 0.00 0.00 0.00 0.00 0.00 0.00
0.00 0.00 0.00 0.00 0.00 0.00 0.00 0.00 0.00 0.00 0.00 0.00 0.00 0.00 0.00 0.00 0.00 0.00 0.00 0.00 0.00 0.00 0.00 0.00 0.00 0.00 0.00 0.00 0.00 0.00 0.00 0.00 0.00 0.00 0.00 0.00 0.00 0.00 0.00 0.00 0.00 0.00 0.01
0.00 0.00 0.00 0.00 0.00 0.00 0.00 0.00 0.00 0.00 0.00 0.00 0.00 0.00 0.00 0.00 0.00 0.00 0.00 0.00 0.00 0.00 0.00 0.00 0.00 0.00 0.00 0.00 0.00 0.00 0.00 0.00 0.00 0.00 0.00 0.00 0.00 0.00 0.00 0.00 0.00 0.00 0.00
0.00 0.00 0.00 0.00 0.00 0.00 0.00 0.00 0.00 0.00 0.00 0.00 0.00 0.00 0.00 0.00 0.00 0.00 0.00 0.00 0.00 0.00 0.00 0.00 0.00 0.00 0.00 0.00 0.00 0.00 0.00 0.00 0.00 0.00 0.00 0.00 0.00 0.00 0.00 0.00 0.00 0.00 0.00
0.00 0.00 0.00 0.00 0.00 0.00 0.00 0.00 0.00 0.00 0.00 0.00 0.00 0.00 0.00 0.00 0.00 0.00 0.00 0.00 0.00 0.00 0.00 0.00 0.00 0.00 0.00 0.00 0.00 0.00 0.00 0.00 0.00 0.00 0.00 0.00 0.00 0.00 0.00 0.00 0.00 0.00 0.00
0.00 0.00 0.00 0.00 0.00 0.00 0.00 0.00 0.00 0.00 0.00 0.00 0.00 0.00 0.00 0.00 0.00 0.00 0.00 0.00 0.00 0.00 0.00 0.00 0.00 0.00 0.00 0.00 0.00 0.00 0.00 0.00 0.00 0.00 0.00 0.00 0.00 0.00 0.00 0.00 0.00 0.00 0.00
0.00 0.00 0.00 0.00 0.00 0.00 0.00 0.00 0.00 0.00 0.00 0.00 0.00 0.00 0.00 0.00 0.00 0.00 0.00 0.00 0.00 0.00 0.00 0.00 0.00 0.00 0.00 0.00 0.00 0.00 0.00 0.00 0.00 0.00 0.00 0.00 0.00 0.00 0.00 0.00 0.00 0.00 0.00
0.00 0.00 0.00 0.00 0.00 0.00 0.00 0.00 0.00 0.00 0.00 0.00 0.00 0.00 0.00 0.00 0.00 0.00 0.00 0.00 0.00 0.00 0.00 0.00 0.00 0.00 0.00 0.00 0.00 0.00 0.00 0.00 0.00 0.00 0.00 0.00 0.00 0.00 0.00 0.00 0.00 0.00 0.00
0.00 0.00 0.00 0.00 0.00 0.00 0.00 0.00 0.00 0.00 0.00 0.00 0.00 0.00 0.00 0.00 0.00 0.00 0.00 0.00 0.00 0.00 0.00 0.00 0.00 0.00 0.00 0.00 0.00 0.00 0.00 0.00 0.00 0.00 0.00 0.00 0.00 0.00 0.00 0.00 0.00 0.00 0.00
0.00 0.00 0.00 0.00 0.00 0.00 0.00 0.00 0.00 0.00 0.00 0.00 0.00 0.00 0.00 0.00 0.00 0.00 0.00 0.00 0.00 0.00 0.00 0.00 0.00 0.00 0.00 0.00 0.00 0.00 0.00 0.00 0.00 0.00 0.00 0.00 0.00 0.00 0.00 0.00 0.00 0.00 0.00
0.00 0.00 0.00 0.00 0.00 0.00 0.00 0.00 0.00 0.00 0.00 0.00 0.00 0.00 0.00 0.00 0.00 0.00 0.00 0.00 0.00 0.00 0.00 0.00 0.00 0.00 0.00 0.00 0.00 0.00 0.00 0.00 0.00 0.00 0.00 0.00 0.00 0.00 0.00 0.00 0.00 0.00 0.00
0.00 0.00 0.00 0.00 0.00 0.00 0.00 0.00 0.00 0.00 0.00 0.00 0.00 0.00 0.00 0.00 0.00 0.00 0.00 0.00 0.00 0.00 0.00 0.00 0.00 0.00 0.00 0.00 0.00 0.00 0.00 0.00 0.00 0.00 0.00 0.00 0.00 0.00 0.00 0.00 0.00 0.00 0.00
0.00 0.00 0.00 0.00 0.00 0.00 0.00 0.00 0.00 0.00 0.00 0.00 0.00 0.00 0.00 0.00 0.00 0.00 0.00 0.00 0.00 0.00 0.00 0.00 0.00 0.00 0.00 0.00 0.00 0.00 0.00 0.00 0.00 0.00 0.00 0.00 0.00 0.00 0.00 0.00 0.00 0.00 0.00
0.00 0.00 0.00 0.00 0.00 0.00 0.00 0.00 0.00 0.00 0.00 0.00 0.00 0.00 0.00 0.00 0.00 0.00 0.00 0.00 0.00 0.00 0.00 0.00 0.00 0.00 0.00 0.00 0.00 0.00 0.00 0.00 0.00 0.00 0.00 0.00 0.00 0.00 0.00 0.00 0.00 0.00 0.00
0.00 0.00 0.00 0.00 0.00 0.00 0.00 0.00 0.00 0.00 0.00 0.00 0.00 0.00 0.00 0.00 0.00 0.00 0.00 0.00 0.00 0.00 0.00 0.00 0.00 0.00 0.00 0.00 0.00 0.00 0.00 0.00 0.00 0.00 0.00 0.00 0.00 0.00 0.00 0.00 0.00 0.00 0.00
0.00 0.00 0.00 0.00 0.00 0.00 0.00 0.00 0.00 0.00 0.00 0.00 0.00 0.00 0.00 0.00 0.00 0.00 0.00 0.00 0.00 0.00 0.00 0.00 0.00 0.00 0.00 0.00 0.00 0.00 0.00 0.00 0.00 0.00 0.00 0.00 0.00 0.00 0.00 0.00 0.00 0.00 0.00
0.00 0.00 0.00 0.00 0.00 0.00 0.00 0.00 0.00 0.00 0.00 0.00 0.00 0.00 0.00 0.00 0.00 0.00 0.00 0.00 0.00 0.00 0.00 0.00 0.00 0.00 0.00 0.00 0.00 0.00 0.00 0.00 0.00 0.00 0.00 0.00 0.00 0.00 0.00 0.00 0.00 0.00 0.00
0.00 0.00 0.00 0.00 0.00 0.00 0.00 0.00 0.00 0.00 0.00 0.00 0.00 0.00 0.00 0.00 0.00 0.00 0.00 0.00 0.00 0.00 0.00 0.00 0.00 0.00 0.00 0.00 0.00 0.00 0.00 0.00 0.00 0.00 0.00 0.00 0.00 0.00 0.00 0.00 0.00 0.00 0.00
0.00 0.00 0.00 0.00 0.00 0.00 0.00 0.00 0.00 0.00 0.00 0.00 0.00 0.00 0.00 0.00 0.00 0.00 0.00 0.00 0.00 0.00 0.00 0.00 0.00 0.00 0.00 0.00 0.00 0.00 0.00 0.00 0.00 0.00 0.00 0.00 0.00 0.00 0.00 0.00 0.00 0.00 0.00
0.00 0.00 0.00 0.00 0.00 0.00 0.00 0.00 0.00 0.00 0.00 0.00 0.00 0.00 0.00 0.00 0.00 0.00 0.00 0.00 0.00 0.00 0.00 0.00 0.00 0.00 0.00 0.00 0.00 0.00 0.00 0.00 0.00 0.00 0.00 0.00 0.00 0.00 0.00 0.00 0.00 0.01 0.01
0.00 0.00 0.00 0.00 0.00 0.00 0.00 0.00 0.00 0.00 0.00 0.00 0.00 0.00 0.00 0.00 0.00 0.00 0.00 0.00 0.00 0.00 0.00 0.00 0.00 0.00 0.00 0.00 0.00 0.00 0.00 0.00 0.00 0.00 0.00 0.00 0.00 0.00 0.00 0.00 0.00 0.00 0.00
0.00 0.00 0.00 0.00 0.00 0.00 0.00 0.00 0.00 0.00 0.00 0.00 0.00 0.00 0.00 0.00 0.00 0.00 0.00 0.00 0.00 0.00 0.00 0.00 0.00 0.00 0.00 0.00 0.00 0.00 0.00 0.00 0.00 0.00 0.00 0.00 0.00 0.00 0.00 0.00 0.00 0.00 0.00
0.00 0.00 0.00 0.00 0.00 0.00 0.00 0.00 0.00 0.00 0.00 0.00 0.00 0.00 0.00 0.00 0.00 0.00 0.00 0.00 0.00 0.00 0.00 0.00 0.00 0.00 0.00 0.00 0.00 0.00 0.00 0.00 0.00 0.00 0.00 0.00 0.00 0.00 0.00 0.00 0.00 0.00 0.00
0.00 0.00 0.00 0.00 0.00 0.00 0.00 0.00 0.00 0.00 0.00 0.00 0.00 0.00 0.00 0.00 0.00 0.00 0.00 0.00 0.00 0.00 0.00 0.00 0.00 0.00 0.00 0.00 0.00 0.00 0.00 0.00 0.00 0.00 0.00 0.00 0.00 0.00 0.00 0.00 0.00 0.00 0.00
0.00 0.00 0.00 0.00 0.00 0.00 0.00 0.00 0.00 0.00 0.00 0.00 0.00 0.00 0.00 0.00 0.00 0.00 0.00 0.00 0.00 0.00 0.00 0.00 0.00 0.00 0.00 0.00 0.00 0.00 0.00 0.00 0.00 0.00 0.00 0.00 0.00 0.00 0.00 0.00 0.00 0.00 0.00
0.00 0.00 0.00 0.00 0.00 0.00 0.00 0.00 0.00 0.00 0.00 0.00 0.00 0.00 0.00 0.00 0.00 0.00 0.00 0.00 0.00 0.00 0.00 0.00 0.00 0.00 0.00 0.00 0.00 0.00 0.00 0.00 0.00 0.00 0.00 0.00 0.00 0.00 0.01 0.00 0.00 0.00 0.00
MSLP
1023.96 1023.93 1023.83 1023.84 1023.85 1023.76 1023.84 1023.81 1023.75 1023.57 1023.34 1023.12 1022.97 1022.83 1022.61 1022.36 1022.11 1021.93 1021.84 1021.56 1021.23 1020.97 1020.73 1020.66 1020.64 1020.65 1020.68 1020.62 1020.53 1020.48 1020.40 1020.26 1020.12 1020.10 1020.05 1019.92 1019.75 1019.72 1019.63 1019.66 1019.60 1019.47 1019.29
1023.60 1023.70 1023.72 1023.76 1023.78 1023.72 1023.73 1023.73 1023.66 1023.55 1023.34 1023.26 1022.97 1022.61 1022.33 1022.08 1021.83 1021.66 1021.42 1021.32 1020.99 1020.82 1020.46 1020.34 1020.34 1020.36 1020.38 1020.34 1020.23 1020.22 1020.22 1020.18 1020.02 1019.94 1019.85 1019.80 1019.68 1019.53 1019.54 1019.39 1019.33 1019.22 1019.17
1023.26 1023.31 1023.49 1023.57 1023.53 1023.57 1023.64 1023.64 1023.56 1023.50 1023.41 1023.14 1022.87 1022.45 1022.17 1021.70 1021.49 1021.31 1021.21 1021.04 1020.84 1020.68 1020.41 1020.25 1020.11 1020.14 1020.02 1019.91 1019.88 1019.78 1019.68 1019.65 1019.69 1019.63 1019.55 1019.47 1019.38 1019.32 1019.22 1019.15 1019.13 1019.03 1018.93
1022.85 1023.10 1023.31 1023.33 1023.27 1023.43 1023.45 1023.56 1023.53 1023.42 1023.32 1023.16 1022.75 1022.24 1021.89 1021.52 1021.19 1020.99 1020.78 1020.61 1020.67 1020.65 1020.36 1020.16 1020.06 1019.73 1019.63 1019.58 1019.47 1019.41 1019.32 1019.18 1019.06 1018.98 1019.07 1019.09 1019.06 1018.92 1018.91 1018.84 1018.74 1018.56 1018.66
1022.43 1022.77 1022.92 1022.90 1023.00 1023.22 1023.32 1023.41 1023.35 1023.44 1023.24 1022.93 1022.65 1021.95 1021.35 1021.06 1020.76 1020.52 1020.52 1020.38 1020.23 1020.22 1020.33 1020.26 1020.00 1019.73 1019.56 1019.29 1019.16 1019.08 1019.04 1018.99 1018.95 1018.91 1018.78 1018.73 1018.61 1018.55 1018.49 1018.53 1018.42 1018.24 1018.32
1022.04 1022.40 1022.55 1022.58 1022.75 1023.02 1023.09 1023.18 1023.23 1023.17 1023.15 1022.88 1022.46 1021.76 1020.89 1020.61 1020.50 1020.52 1020.39 1020.13 1020.10 1020.04 1020.08 1020.06 1019.96 1019.85 1019.43 1019.25 1019.01 1018.84 1018.64 1018.52 1018.51 1018.51 1018.38 1018.23 1018.22 1017.99 1017.88 1017.77 1017.79 1017.73 1017.78
1021.63 1021.94 1022.14 1022.25 1022.45 1022.72 1022.63 1022.76 1023.00 1023.22 1023.14 1022.87 1022.76 1021.80 1020.82 1020.32 1020.13 1020.15 1019.95 1019.89 1019.84 1019.76 1019.77 1019.68 1019.75 1019.64 1019.60 1019.20 1019.01 1018.71 1018.51 1018.29 1018.05 1017.81 1017.76 1017.62 1017.45 1017.40 1017.29 1017.20 1017.10 1017.09 1017.00
1021.09 1021.39 1021.60 1021.76 1021.96 1022.32 1022.38 1022.52 1022.76 1023.08 1023.19 1022.97 1023.19 1023.32 1022.43 1021.07 1020.44 1019.86 1019.82 1019.69 1019.55 1019.49 1019.48 1019.41 1019.39 1019.33 1019.22 1019.13 1018.83 1018.65 1018.39 1018.11 1017.77 1017.56 1017.35 1017.28 1017.15 1016.96 1016.91 1016.66 1016.58 1016.61 1016.38
1020.43 1020.69 1020.85 1021.17 1021.43 1021.77 1021.92 1022.08 1022.34 1022.81 1023.05 1022.97 1022.90 1023.15 1023.09 1022.96 1022.20 1020.50 1020.14 1020.05 1019.80 1019.67 1019.54 1019.30 1019.14 1018.92 1018.67 1018.52 1018.30 1018.11 1017.88 1017.70 1017.50 1017.18 1016.94 1016.74 1016.53 1016.34 1016.30 1016.20 1016.16 1016.00 1015.83
1019.89 1020.09 1020.31 1020.60 1020.84 1021.13 1021.37 1021.36 1021.68 1022.10 1022.64 1022.85 1023.01 1022.77 1022.88 1023.01 1022.92 1022.10 1020.85 1020.20 1019.94 1019.86 1019.64 1019.25 1019.00 1018.65 1018.30 1018.03 1017.73 1017.53 1017.16 1016.87 1016.66 1016.63 1016.43 1016.05 1015.95 1015.83 1015.60 1015.41 1015.28 1015.30 1015.25
1019.48 1019.54 1019.70 1019.95 1020.22 1020.40 1020.48 1020.72 1021.06 1021.48 1021.80 1022.20 1022.53 1022.73 1022.91 1023.02 1023.18 1023.49 1021.88 1020.57 1020.17 1019.48 1019.37 1019.04 1018.76 1018.43 1017.84 1017.56 1017.37 1017.09 1016.77 1016.42 1016.15 1015.95 1015.73 1015.58 1015.44 1015.23 1015.00 1014.70 1014.59 1014.48 1014.46
1019.05 1019.04 1019.08 1019.29 1019.41 1019.60 1019.79 1019.95 1020.31 1020.75 1021.05 1021.43 1021.69 1022.06 1022.28 1022.50 1022.71 1022.92 1022.87 1021.48 1020.22 1018.86 1018.75 1018.43 1018.39 1018.07 1017.67 1017.42 1017.00 1016.56 1016.22 1015.96 1015.65 1015.45 1015.20 1015.08 1014.89 1014.64 1014.49 1014.44 1014.15 1013.88 1013.75
1018.44 1018.36 1018.54 1018.72 1018.91 1018.90 1019.04 1019.30 1019.67 1019.98 1020.29 1020.71 1020.89 1021.16 1021.37 1021.49 1021.51 1021.79 1022.14 1021.63 1021.09 1019.10 1018.64 1017.88 1017.82 1017.65 1017.28 1017.00 1016.80 1016.41 1016.05 1015.74 1015.45 1015.16 1014.86 1014.54 1014.32 1014.24 1014.16 1013.99 1013.79 1013.64 1013.37
1017.72 1017.79 1017.90 1018.03 1018.11 1018.28 1018.44 1018.72 1019.14 1019.36 1019.62 1019.88 1020.12 1020.38 1020.57 1020.62 1020.83 1021.05 1021.16 1021.39 1021.00 1020.10 1019.15 1018.58 1017.65 1017.19 1016.79 1016.63 1016.36 1015.99 1015.70 1015.18 1014.92 1014.72 1014.42 1014.05 1013.65 1013.47 1013.40 1013.28 1013.31 1013.21 1012.99
1017.16 1017.32 1017.37 1017.53 1017.58 1017.79 1017.98 1018.30 1018.62 1018.83 1019.08 1019.21 1019.38 1019.59 1019.82 1019.82 1019.99 1020.05 1020.30 1020.55 1020.96 1020.86 1019.46 1018.19 1017.95 1016.90 1016.56 1016.19 1015.84 1015.47 1015.17 1014.80 1014.33 1014.10 1013.78 1013.48 1013.14 1012.96 1012.83 1012.74 1012.58 1012.59 1012.52
1016.54 1016.68 1016.80 1016.92 1017.12 1017.32 1017.53 1017.78 1018.08 1018.28 1018.54 1018.56 1018.68 1018.88 1019.00 1019.06 1019.21 1019.45 1019.69 1019.94 1020.25 1020.36 1019.74 1017.93 1017.31 1016.70 1016.36 1015.71 1015.42 1015.15 1014.84 1014.32 1013.91 1013.52 1013.18 1012.95 1012.82 1012.64 1012.44 1012.19 1012.10 1012.09 1012.15
1015.83 1016.01 1016.18 1016.36 1016.55 1016.81 1017.06 1017.36 1017.59 1017.82 1018.00 1018.07 1018.18 1018.25 1018.31 1018.43 1018.63 1018.82 1019.05 1019.25 1019.49 1019.55 1019.15 1017.27 1017.11 1016.57 1015.93 1015.47 1014.98 1014.78 1014.36 1014.11 1013.59 1013.16 1012.96 1012.72 1012.42 1011.98 1011.79 1011.67 1011.50 1011.52 1011.47
1015.13 1015.31 1015.52 1015.74 1015.92 1016.20 1016.51 1016.83 1017.05 1017.23 1017.50 1017.71 1017.62 1017.76 1017.76 1017.84 1017.98 1018.19 1018.38 1018.43 1018.46 1018.38 1018.47 1017.80 1016.97 1016.34 1015.80 1015.04 1014.93 1014.63 1014.03 1013.64 1013.30 1012.87 1012.28 1011.99 1011.83 1011.65 1011.44 1011.22 1011.02 1010.95 1010.87
1014.45 1014.71 1014.89 1015.12 1015.30 1015.54 1015.88 1016.18 1016.40 1016.64 1016.96 1017.04 1017.08 1017.17 1017.19 1017.37 1017.54 1017.57 1017.59 1017.67 1017.52 1017.52 1017.84 1017.54 1016.71 1015.94 1015.65 1015.26 1014.71 1014.42 1013.90 1013.52 1013.09 1012.42 1011.94 1011.60 1011.09 1010.99 1010.91 1010.77 1010.51 1010.36 1010.34
1013.80 1014.03 1014.20 1014.43 1014.65 1014.91 1015.24 1015.58 1015.88 1016.26 1016.52 1016.55 1016.56 1016.57 1016.69 1016.81 1016.83 1016.77 1016.91 1016.90 1017.02 1017.08 1016.82 1016.77 1016.50 1016.02 1015.57 1014.93 1014.83 1014.60 1013.84 1013.41 1013.04 1012.34 1011.93 1011.53 1011.14 1010.77 1010.59 1010.43 1010.15 1009.86 1009.69
1013.02 1013.33 1013.72 1014.00 1014.15 1014.39 1014.67 1015.00 1015.37 1015.77 1016.06 1016.12 1016.16 1016.17 1016.17 1016.12 1016.11 1016.05 1016.01 1016.23 1016.31 1016.27 1016.38 1016.54 1016.44 1016.00 1015.54 1015.29 1015.06 1014.61 1014.42 1013.67 1012.86 1012.14 1011.72 1011.38 1011.02 1010.76 1010.40 1010.09 1009.80 1009.51 1009.18
1012.46 1012.89 1013.23 1013.46 1013.67 1013.76 1013.96 1014.25 1014.70 1015.25 1015.48 1015.69 1015.88 1015.78 1015.68 1015.75 1015.66 1015.63 1015.56 1015.44 1015.47 1015.68 1015.96 1016.08 1015.98 1015.78 1015.05 1014.80 1014.53 1014.44 1013.95 1013.59 1012.97 1011.80 1011.58 1011.16 1010.91 1010.52 1010.17 1009.74 1009.25 1008.99 1008.67
1011.75 1012.23 1012.62 1012.93 1013.06 1013.15 1013.36 1013.65 1014.08 1014.61 1015.00 1015.24 1015.41 1015.46 1015.51 1015.43 1015.44 1015.28 1015.07 1015.13 1015.20 1015.30 1015.25 1015.24 1015.14 1015.14 1014.86 1014.53 1014.29 1014.04 1013.86 1013.37 1012.57 1011.83 1011.84 1010.83 1010.46 1010.16 1009.81 1009.31 1008.72 1008.40 1008.04
1010.70 1011.43 1011.92 1012.21 1012.54 1012.65 1012.77 1013.08 1013.56 1014.05 1014.54 1014.77 1014.93 1015.19 1015.27 1015.33 1015.03 1014.92 1015.00 1015.06 1015.08 1015.03 1014.76 1014.63 1014.76 1014.55 1014.33 1014.17 1014.05 1013.93 1013.74 1013.70 1013.14 1012.37 1012.00 1011.10 1010.36 1009.94 1009.39 1008.98 1008.25 1007.67 1007.43
1009.81 1010.36 1010.91 1011.62 1012.12 1012.20 1012.28 1012.59 1013.07 1013.75 1014.22 1014.39 1014.79 1014.81 1014.81 1014.81 1014.80 1014.89 1014.95 1015.08 1015.11 1014.74 1014.47 1014.34 1014.05 1014.02 1013.88 1013.75 1013.76 1013.99 1014.07 1013.76 1012.95 1012.14 1011.51 1011.63 1010.84 1010.00 1009.25 1008.34 1007.46 1007.17 1007.10
1008.42 1009.32 1010.20 1010.69 1011.15 1011.54 1011.74 1012.06 1012.55 1013.24 1013.79 1014.29 1014.48 1014.32 1014.40 1014.65 1014.62 1014.66 1014.77 1014.73 1014.56 1014.62 1014.57 1014.37 1014.44 1014.32 1014.47 1014.49 1013.88 1014.06 1014.26 1014.28 1013.73 1012.74 1012.05 1011.68 1010.93 1010.52 1008.75 1007.66 1007.52 1007.23 1006.95
Thickness
5699 5698 5699 5698 5698 5697 5695 5694 5693 5693 5694 5694 5693 5692 5692 5691 5691 5689 5687 5684 5683 5679 5677 5674 5670 5666 5661 5658 5655 5652 5649 5646 5644 5641 5638 5636 5635 5632 5630 5628 5627 5627 5627
5703 5702 5701 5699 5697 5696 5695 5694 5693 5693 5693 5692 5692 5692 5692 5692 5691 5689 5687 5685 5682 5678 5676 5672 5667 5663 5659 5655 5652 5648 5645 5642 5640 5637 5634 5631 5628 5627 5624 5622 5621 5620 5619
5705 5703 5701 5699 5698 5696 5695 5693 5693 5692 5692 5691 5692 5693 5693 5693 5691 5689 5686 5684 5682 5678 5674 5669 5665 5659 5657 5654 5650 5647 5643 5640 5636 5633 5630 5627 5624 5622 5620 5618 5616 5614 5613
5707 5705 5703 5701 5699 5697 5695 5693 5692 5691 5690 5690 5692 5693 5693 5693 5693 5690 5688 5685 5680 5675 5672 5666 5660 5658 5654 5651 5647 5643 5640 5637 5634 5631 5626 5622 5620 5618 5615 5613 5612 5610 5608
5710 5708 5705 5703 5700 5697 5695 5692 5692 5689 5688 5689 5690 5694 5696 5696 5694 5691 5688 5684 5679 5674 5668 5662 5657 5653 5648 5646 5642 5637 5633 5630 5626 5622 5619 5616 5614 5612 5609 5606 5605 5604 5602
5713 5710 5708 5706 5702 5699 5696 5692 5690 5689 5686 5686 5689 5693 5697 5696 5694 5690 5687 5683 5678 5672 5665 5658 5654 5648 5644 5638 5634 5630 5627 5623 5619 5615 5613 5611 5607 5605 5604 5602 5600 5597 5595
5717 5713 5711 5709 5705 5701 5699 5695 5690 5687 5685 5684 5683 5689 5693 5694 5693 5689 5686 5681 5676 5669 5663 5657 5649 5644 5636 5632 5626 5622 5618 5615 5613 5611 5608 5605 5603 5600 5597 5594 5593 5591 5589
5721 5717 5715 5712 5708 5704 5700 5696 5692 5688 5684 5683 5680 5671 5672 5683 5684 5686 5681 5678 5673 5666 5659 5651 5645 5637 5631 5626 5621 5615 5611 5607 5605 5601 5599 5596 5593 5590 5588 5586 5584 5581 5580
5725 5721 5719 5715 5711 5707 5703 5699 5694 5688 5685 5682 5679 5676 5669 5666 5662 5674 5673 5668 5663 5657 5651 5645 5638 5632 5627 5622 5616 5611 5605 5600 5596 5594 5591 5588 5585 5582 5579 5576 5573 5571 5570
5728 5725 5722 5718 5714 5711 5706 5703 5698 5692 5685 5681 5675 5673 5669 5665 5661 5659 5661 5661 5654 5648 5642 5636 5631 5624 5620 5616 5611 5605 5601 5597 5593 5586 5582 5581 5577 5572 5570 5568 5564 5560 5558
5731 5728 5725 5722 5718 5715 5711 5707 5700 5694 5688 5682 5676 5670 5664 5656 5649 5643 5654 5653 5648 5644 5636 5630 5623 5618 5614 5608 5602 5598 5593 5590 5585 5581 5576 5571 5567 5563 5560 5557 5553 5550 5546
5733 5730 5728 5724 5722 5718 5714 5710 5704 5697 5691 5684 5678 5670 5664 5656 5646 5638 5632 5637 5646 5649 5637 5628 5619 5612 5605 5598 5592 5589 5585 5579 5575 5570 5566 5560 5556 5553 5548 5543 5541 5537 5533
5733 5732 5729 5726 5723 5720 5716 5711 5705 5699 5692 5685 5679 5672 5664 5657 5651 5642 5633 5635 5629 5640 5632 5625 5615 5605 5598 5591 5582 5578 5574 5568 5564 5559 5555 5551 5546 5541 5534 5529 5524 5519 5515
5736 5733 5730 5727 5724 5720 5716 5711 5704 5698 5693 5686 5679 5671 5664 5657 5648 5641 5633 5623 5627 5623 5621 5612 5610 5600 5593 5582 5574 5569 5565 5562 5555 5549 5544 5540 5536 5529 5523 5515 5506 5498 5493
5736 5733 5730 5727 5724 5720 5715 5709 5703 5697 5691 5685 5679 5671 5663 5657 5648 5640 5630 5620 5608 5602 5615 5607 5597 5594 5583 5574 5567 5564 5558 5552 5546 5539 5534 5529 5522 5514 5506 5497 5487 5479 5475
5737 5733 5730 5727 5723 5718 5713 5707 5701 5695 5688 5683 5678 5670 5662 5655 5646 5637 5626 5615 5604 5596 5593 5595 5591 5584 5574 5567 5559 5554 5547 5542 5536 5530 5524 5516 5506 5497 5485 5477 5471 5466 5461
5737 5733 5730 5726 5722 5717 5711 5704 5699 5693 5686 5681 5675 5668 5660 5652 5642 5633 5621 5611 5600 5589 5584 5595 5580 5572 5567 5558 5553 5545 5540 5533 5527 5519 5509 5500 5491 5482 5472 5466 5462 5458 5457
5736 5733 5729 5724 5720 5715 5709 5702 5696 5690 5683 5676 5671 5663 5656 5649 5639 5628 5617 5608 5599 5588 5577 5575 5572 5564 5556 5551 5542 5536 5529 5519 5513 5504 5497 5488 5478 5468 5462 5458 5456 5452 5450
5735 5730 5726 5722 5718 5712 5705 5698 5692 5685 5677 5672 5665 5658 5651 5643 5633 5623 5613 5604 5596 5585 5571 5564 5563 5556 5545 5537 5534 5525 5517 5508 5498 5493 5484 5474 5467 5460 5456 5452 5450 5447 5444
5732 5728 5724 5719 5714 5708 5701 5694 5687 5678 5671 5665 5659 5653 5645 5637 5630 5621 5610 5600 5588 5577 5569 5558 5549 5543 5534 5530 5521 5515 5510 5497 5486 5477 5468 5459 5455 5452 5449 5447 5444 5443 5440
5729 5724 5719 5714 5708 5702 5696 5689 5680 5672 5665 5658 5651 5645 5638 5631 5625 5616 5606 5594 5583 5573 5561 5548 5538 5529 5523 5514 5508 5502 5492 5488 5479 5469 5460 5452 5450 5446 5443 5442 5439 5436 5435
5723 5717 5712 5708 5702 5698 5692 5685 5676 5665 5658 5651 5643 5636 5630 5623 5614 5605 5596 5589 5578 5564 5550 5538 5529 5518 5515 5507 5500 5490 5482 5476 5474 5466 5455 5450 5442 5441 5437 5436 5435 5432 5429
5717 5712 5706 5701 5696 5691 5686 5680 5671 5659 5650 5643 5635 5628 5619 5611 5603 5594 5587 5576 5565 5553 5544 5533 5523 5512 5505 5497 5492 5480 5471 5464 5457 5449 5439 5443 5436 5437 5433 5431 5428 5426 5424
5715 5707 5701 5695 5689 5683 5679 5672 5664 5652 5642 5635 5627 5618 5609 5599 5593 5586 5575 5564 5553 5541 5534 5523 5510 5502 5494 5488 5480 5471 5463 5451 5439 5432 5425 5428 5428 5427 5426 5424 5422 5421 5418
5710 5703 5697 5688 5681 5675 5670 5664 5655 5643 5633 5626 5615 5609 5602 5593 5584 5576 5565 5553 5541 5532 5522 5511 5504 5494 5485 5477 5467 5456 5443 5434 5431 5421 5419 5413 5414 5416 5417 5420 5418 5412 5407
5711 5699 5690 5684 5676 5668 5662 5655 5647 5635 5624 5613 5604 5599 5593 5582 5574 5565 5552 5543 5535 5522 5512 5501 5489 5480 5470 5460 5453 5443 5431 5418 5406 5408 5406 5405 5403 5399 5412 5414 5407 5400 5395